Location: Byhalia Creek
(34.8270°N, 89.8040°W)
Time: 21:24:30
(UTC+00:00)

Gbstr 26 Del rocket - Pass Details

Date: 22 April 2026
Orbit: 490 x 1215 km, 51.8° (Epoch: 21 May)

Event Time Altitude Azimuth Distance (km) Brightness Sun altitude
Rises 02:56:03 0° 234° (SW) 3,449 7.1 -26.3°
Reaches altitude 10° 02:58:50 10° 238° (WSW) 2,388 6.2 -26.7°
Maximum altitude 03:04:15 62° 319° (NW) 778 3.7 -27.6°
Enters shadow 03:05:00 54° 2° (N) 824 3.7 -27.7°
